#timestamp,LO_Frequency,Hit,StdDev 
1643810415.4,286047000.0,N
1643810435.3,286047000.2,N
1643810455.1,286047000.1,N
1643810456.0,286047000.1,N
1643810475.8,286047000.2,N
1643810495.7,286047000.7,N
1643810515.5,286047000.6,N
1643810535.4,286047000.4,N
1643810555.2,286047000.1,N
1643810575.0,286047000.8,N
1643810575.9,286047000.8,N
1643810595.8,286047000.9,N
1643810615.6,286047001.0,N
1643810635.5,286047000.4,N
1643810655.3,286047000.7,N
1643810675.1,286046999.9,N
1643810695.9,286046998.3,N
1643810715.7,286047000.8,N
1643810735.5,286047001.0,N
1643810755.4,286047001.9,N
1643810775.2,286047001.5,N
1643810795.1,286047002.1,N
1643810796.0,286047002.1,N
1643810815.8,286047002.8,Y
1643810835.6,286046999.7,P
1643810855.5,286046998.2,P
1643810875.3,286047001.0,N
1643810895.2,286047000.5,N
1643810915.0,286046999.2,N
1643810915.9,286046999.2,N
1643810935.8,286046997.5,N
1643810955.6,286046999.4,N
1643810975.4,286046996.6,Y
1643810995.3,286046999.0,P
1643811015.1,286046998.8,P
1643811035.8,286046998.4,P
1643811055.7,286047000.7,N
1643811075.5,286047001.1,N
1643811095.4,286047001.1,N
1643811115.2,286047000.4,N
1643811135.0,286047000.7,N
1643811135.9,286047000.7,N
1643811155.8,286046999.9,N
1643811175.6,286047000.0,N
1643811195.4,286046999.9,N
1643811215.3,286047002.4,N
1643811235.1,286047002.3,N
1643811255.9,286047000.0,N
1643811275.7,286047000.1,N
1643811295.5,286046996.6,Y
1643811315.4,286046999.6,P
1643811335.2,286046999.1,N
1643811355.0,286047000.6,N
1643811355.9,286047000.6,N
1643811375.8,286047000.2,N
1643811395.1,286047002.4,Y
1643811415.8,286047001.7,P
1643811435.7,286047001.8,N
1643811455.5,286047001.8,N
1643811475.4,286046999.7,N
1643811495.2,286047002.8,N
1643811515.0,286047002.3,N
1643811515.9,286047002.3,N
1643811535.8,286047002.6,N
1643811555.6,286047001.6,N
1643811575.5,286047002.5,N
1643811595.3,286047004.2,Y
1643811615.1,286046999.8,P
1643811635.9,286046999.8,N
1643811655.7,286046999.9,N
1643811675.5,286046999.8,N
1643811695.4,286047000.0,N
1643811715.2,286047000.3,N
1643811735.1,286047001.2,N
1643811736.0,286047001.2,N
1643811755.8,286047000.7,N
1643811775.6,286047000.6,N
1643811795.5,286047002.4,Y
1643811815.3,286047002.8,P
1643811835.2,286047000.1,N
1643811855.9,286047002.5,N
1643811875.7,286047000.8,N
1643811895.6,286047001.2,N
1643811915.4,286047000.4,N
1643811935.2,286046998.3,N
1643811955.1,286046998.6,N
1643811956.0,286046998.6,N
1643811975.8,286046998.2,N
1643811995.7,286046999.9,N
1643812015.5,286046998.3,N
1643812035.3,286047000.8,N
1643812055.2,286046998.7,N
1643812075.0,286046998.6,N
1643812075.9,286046998.6,N
1643812095.7,286047000.2,N
1643812115.6,286047000.5,N
1643812135.4,286046999.4,N
1643812155.3,286046998.2,N
1643812175.1,286046996.9,N
1643812176.0,286046996.9,N
1643812195.8,286046997.7,N
1643812215.7,286046994.9,Y
1643812235.5,286046999.0,P
1643812255.4,286046998.8,P
1643812275.2,286046998.1,P
1643812295.0,286046998.7,N
1643812295.9,286046998.7,Y
1643812315.8,286047000.7,P
1643812335.6,286047002.3,N
1643812355.4,286046999.7,N
1643812375.3,286047002.0,N
1643812395.1,286047001.7,N
1643812415.9,286047004.1,Y
1643812435.7,286047002.8,P
1643812455.5,286046999.7,N
1643812475.4,286047000.1,N
1643812495.2,286047000.7,N
1643812515.1,286047000.9,N
1643812516.0,286047000.9,N
1643812535.8,286046999.7,N
1643812555.6,286047000.6,N
1643812575.5,286047000.5,N
1643812595.3,286047000.7,N
1643812615.1,286046999.9,N
1643812635.9,286047001.0,N
1643812655.7,286047000.9,N
1643812675.6,286047001.2,N
1643812695.4,286046998.5,N
1643812715.2,286047000.8,N
1643812735.1,286046999.8,N
1643812736.0,286046999.8,N
1643812755.8,286047002.2,N
1643812775.7,286047000.6,N
1643812795.5,286047000.0,N
1643812815.3,286047002.3,N
1643812835.2,286047002.6,N
1643812855.0,286047001.4,N
1643812855.9,286047001.4,N
1643812875.7,286047002.8,N
1643812895.6,286047002.2,N
1643812915.4,286047002.7,N
1643812935.3,286047002.4,N
1643812955.1,286047000.9,N
1643812956.0,286047000.9,N
1643812975.8,286047000.3,N
1643812995.7,286047000.0,N
1643813015.5,286046999.4,N
1643813035.3,286046996.9,N
1643813055.2,286046998.2,N
1643813075.0,286047001.0,N
1643813075.9,286047001.0,N
1643813095.8,286047002.8,N
1643813115.6,286047002.3,N
1643813135.4,286047000.2,N
1643813155.3,286047000.3,N
1643813205.1,286047000.7,E
1643813215.1,286047000.7,N
1643813216.0,286047000.7,P
1643813235.8,286047000.8,P
1643813255.6,286047001.1,Y
1643813275.5,286046998.6,P
1643813295.3,286046997.0,N
1643813315.2,286046996.5,N
1643813335.9,286046997.3,N
1643813355.7,286046999.1,N
1643813375.6,286046999.0,N
1643813395.4,286046998.7,N
1643813415.2,286046998.4,N
1643813435.1,286046996.7,N
1643813436.0,286046996.7,N
1643813455.8,286046998.4,N
1643813475.7,286046999.3,N
1643813495.5,286046999.3,N
1643813515.3,286047000.8,N
1643813535.2,286046998.4,N
1643813555.0,286046998.1,N
1643813555.9,286046998.1,N
1643813575.7,286047001.2,N
1643813595.6,286046998.1,N
1643813615.4,286046998.2,N
1643813635.3,286047018.8,Y
1643813655.1,286047021.8,P
1643813675.8,286047019.3,N
1643813695.7,286047015.2,N
1643813715.5,286047011.2,N
1643813735.4,286047009.7,N
1643813755.2,286047007.8,N
1643813775.0,286047007.4,N
1643813775.9,286047007.4,N
1643813795.8,286047007.2,N
1643813815.6,286047007.3,N
1643813835.4,286047006.8,N
1643813855.3,286047006.9,N
1643813875.1,286047004.6,N
1643813895.9,286047007.5,N
1643813915.7,286047005.6,N
1643813935.5,286047005.7,N
1643813955.4,286047005.5,N
1643813975.2,286047005.6,N
1643813995.1,286047005.4,N
1643813996.0,286047005.4,N
